Overview Statistics Trail Chart Weather Telemetry Raw packets
 

This is the latest recevied weather packets stored in our database for station/object K8RRT. If no packets are shown the sender has not sent any weather packets the latest 10 day(s).

<< 36 37 38 39 40 41 42 >>
Time Temp. Humidity Pressure Rain* Wind** Luminosity Snow
1788369359 32.78° C 67% 1014.9 hPa 0 mm - 762 W/m² -
1788369055 33.33° C 65% 1015.1 hPa 0 mm - 779 W/m² -
1788368750 32.78° C 67% 1015.1 hPa 0 mm - 763 W/m² -
1788368446 32.22° C 66% 1015.1 hPa 0 mm - 712 W/m² -
1788368145 32.78° C 66% 1015.5 hPa 0 mm - 150 W/m² -
1788367840 32.78° C 67% 1015.5 hPa 0 mm - 740 W/m² -
1788367535 32.78° C 67% 1015.7 hPa 0 mm - 749 W/m² -
1788367234 32.22° C 67% 1015.6 hPa 0 mm - 692 W/m² -
1788366930 32.22° C 67% 1015.8 hPa 0 mm - 670 W/m² -
1788366628 32.22° C 69% 1015.6 hPa 0 mm - 718 W/m² -
1788366328 32.22° C 68% 1015.7 hPa 0 mm - 738 W/m² -
1788366023 32.22° C 68% 1015.9 hPa 0 mm - 733 W/m² -
1788365718 31.67° C 69% 1016 hPa 0 mm - 680 W/m² -
1788365414 31.67° C 70% 1016 hPa 0 mm - 625 W/m² -
1788365110 32.22° C 71% 1016 hPa 0 mm - 714 W/m² -
1788364809 31.67° C 73% 1016 hPa 0 mm - 791 W/m² -
1788364503 31.67° C 70% 1016 hPa 0 mm - 757 W/m² -
1788364201 31.67° C 71% 1016.1 hPa 0 mm - 776 W/m² -
1788363897 31.11° C 72% 1016.2 hPa 0 mm - 806 W/m² -
1788363592 31.11° C 73% 1016 hPa 0 mm - 831 W/m² -
1788363290 31.11° C 75% 1016.3 hPa 0 mm - 818 W/m² -
1788362986 31.11° C 73% 1016.1 hPa 0 mm - 801 W/m² -
1788362682 30.56° C 75% 1016.2 hPa 0 mm - 770 W/m² -
1788362377 30.56° C 73% 1016 hPa 0 mm - 790 W/m² -
1788362074 30.56° C 75% 1015.9 hPa 0 mm - 709 W/m² -

* Rain latest hour (hover to see other rain measurements)
** Current wind speed in m/s (hover to see current wind gust speed)